Location: Harburg
(48.7667°N, 10.6667°E)
Time: 08:32:20
(UTC+00:00)

NOSS 8 (F) - Pass Details

Date: 18 September 2020
Orbit: 385 x 1787 km, 63.3° (Epoch: 27 October)

Event Time Altitude Azimuth Distance (km) Brightness Sun altitude
Rises 18:05:59 0° 221° (SW) 2,475 8.6 -7.9°
Reaches altitude 10° 18:08:12 10° 222° (SW) 1,506 7.5 -8.2°
Maximum altitude 18:11:23 85° 310° (NW) 398 4.1 -8.7°
Drops below altitude 10° 18:14:24 10° 41° (NE) 1,424 6.7 -9.2°
Sets 18:16:26 0° 42° (NE) 2,322 7.7 -9.5°
